Tracking 19247 objects as of 26-Sep-2018
HD Live streaming from Space Station
objects crossing your sky now

FENGYUN 1C DEB

Track FENGYUN 1C DEB now!
10-day predictions


NORAD ID: 37057
Int'l Code: 1999-025EER
Perigee: 710.6 km
Apogee: 1,138.5 km
Inclination: 99.2 °
Period: 103.4 minutes
Semi major axis: 7295 km
RCS: 0.0122 m2 (small)
Launch date: May 10, 1999
Source: People's Republic of China (PRC)
Launch site: Taiyaun Space Center, China (TSC)

Note: This is SATELLITE DEBRIS
aabbcc
Your satellite tracking list
Your tracking list is empty




NASA's NSSDC Master Catalog

Two Line Element Set (TLE):
1 37057U 99025EER 18267.29998390 +.00000328 +00000-0 +19990-3 0  9994
2 37057 099.1883 297.0865 0293270 153.2841 208.3773 13.93201903478905
Source of the keplerian elements: AFSPC